Location: Bli��� Lhota
(48.7570°N, 14.0120°E)
Time: 02:56:48
(UTC+00:00)

Cosmos 1943 Rocket - Pass Details

Date: 18 September 2020
Orbit: 814 x 842 km, 71.0° (Epoch: 24 October)

Event Time Altitude Azimuth Distance (km) Brightness Sun altitude
Exits shadow 22:35:52 17° 33° (NNE) 1,974 4.5 -39.6°
Drops below altitude 10° 22:37:08 10° 32° (NNE) 2,445 5.1 -39.6°
Sets 22:39:35 0° 30° (NNE) 3,378 5.9 -39.7°
